Location: Mentone
(34.5413°N, 85.5351°W)
Time: 23:02:07
(UTC-06:00)

Vanguard 3 - All Passes

Search period start: 01 March 2015 00:00
Search period end: 11 March 2015 01:00
Orbit: 510 x 3273 km, 33.3° (Epoch: 28 February)

Date Brightness Start Highest point End Pass type
(mag) Time Alt. Az. Time Alt. Az. Time Alt. Az.
01 Mar - 06:12:28 10° SSW 06:16:38 17° SSE 06:19:56 10° ESE daylight
01 Mar - 08:23:47 10° WSW 08:28:33 45° SSE 08:32:10 10° E daylight
01 Mar - 10:36:06 10° W 10:39:51 76° S 10:43:47 10° E daylight
01 Mar - 12:47:31 10° W 12:51:13 40° SSW 12:56:22 10° SE daylight
01 Mar - 15:00:07 10° WSW 15:03:23 15° SSW 15:07:21 10° S daylight
02 Mar - 05:01:27 10° S 05:03:54 12° SSE 05:06:17 10° SE visible
02 Mar - 07:10:55 10° SW 07:16:30 32° SSE 07:20:22 10° E daylight
02 Mar - 09:23:41 10° WSW 09:28:01 71° S 09:31:39 10° E daylight
02 Mar - 11:35:42 10° W 11:39:18 56° SSW 11:43:37 10° ESE daylight
02 Mar - 13:47:29 10° WSW 13:50:53 21° SSW 13:55:24 10° SSE daylight
03 Mar - 05:58:01 10° SSW 06:04:07 24° SSE 06:08:24 10° ESE daylight
03 Mar - 08:10:43 10° WSW 08:16:06 56° SSE 08:19:54 10° E daylight
03 Mar - 10:23:35 10° W 10:27:28 73° S 10:31:14 10° E daylight
03 Mar - 12:35:22 10° W 12:38:46 30° SSW 12:43:06 10° SE daylight
04 Mar - 04:45:27 10° SSW 04:51:21 18° SSE 04:55:50 10° ESE visible
04 Mar - 06:57:20 10° SW 07:04:00 42° SSE 07:08:16 10° E daylight
04 Mar - 09:10:55 10° W 09:15:36 76° S 09:19:16 10° E daylight
04 Mar - 11:23:19 10° W 11:26:52 46° SSW 11:30:48 10° ESE daylight
04 Mar - 13:36:00 10° SW 13:38:24 14° SSW 13:41:09 10° S daylight
05 Mar - 03:34:12 10° S 03:38:05 13° SSE 03:41:46 10° SE visible
05 Mar - 05:43:47 10° SW 05:51:33 32° SSE 05:56:31 10° E visible
05 Mar - 07:57:35 10° WSW 08:03:37 66° S 08:07:38 10° E daylight
05 Mar - 10:10:59 10° W 10:15:03 66° S 10:18:43 10° ESE daylight
05 Mar - 12:23:17 10° WSW 12:26:16 22° SSW 12:29:44 10° SSE daylight
06 Mar - 04:30:23 10° SSW 04:38:42 25° SSE 04:44:20 10° ESE visible
06 Mar - 06:43:45 10° WSW 06:51:27 53° SSE 06:56:05 10° E daylight
06 Mar - 08:58:02 10° W 09:03:10 78° S 09:06:55 10° E daylight
06 Mar - 11:10:54 10° W 11:14:24 36° SSW 11:17:58 10° SE daylight
07 Mar - 03:17:39 10° S 03:25:21 19° SSE 03:31:18 10° ESE visible
07 Mar - 05:29:38 10° SW 05:38:55 42° SSE 05:44:26 10° E visible
07 Mar - 07:44:24 10° WSW 07:51:07 74° S 07:55:21 10° E daylight
07 Mar - 09:58:17 10° W 10:02:36 59° SSW 10:06:13 10° ESE daylight
07 Mar - 12:11:24 10° WSW 12:13:44 16° SSW 12:16:11 10° SSE daylight
08 Mar - 03:06:53 10° S 03:11:28 12° SSE 03:16:08 10° SE visible
08 Mar - 05:15:35 10° SW 05:25:57 33° SSE 05:32:27 10° E visible
08 Mar - 07:30:09 10° WSW 07:38:49 63° SSE 07:43:50 10° E daylight
08 Mar - 09:45:05 10° W 09:50:42 77° S 09:54:34 10° E daylight
08 Mar - 11:58:27 10° W 12:01:52 28° SSW 12:05:07 10° SE daylight
09 Mar - 04:02:01 10° SSW 04:12:29 25° SSE 04:19:49 10° ESE visible
09 Mar - 06:15:32 10° SW 06:26:11 51° SSE 06:32:14 10° E visible
09 Mar - 08:31:07 10° W 08:38:33 79° S 08:43:03 10° E daylight
09 Mar - 10:45:30 10° W 10:50:06 51° SSW 10:53:42 10° ESE daylight
09 Mar - 13:00:11 10° SW 13:01:06 11° SSW 13:01:55 10° SSW daylight
10 Mar - 02:49:38 10° S 02:58:30 18° SSE 03:05:55 10° ESE visible
10 Mar - 05:00:56 10° SW 05:13:06 41° SSE 05:20:21 10° E visible
10 Mar - 07:16:29 10° WSW 07:26:09 71° S 07:31:33 10° E daylight
10 Mar - 09:32:00 10° W 09:38:11 73° S 09:42:13 10° ESE daylight
10 Mar - 11:46:00 10° W 11:49:16 22° SSW 11:52:11 10° SSE daylight
